Paris Le Bourget, France

6:35 PM CET on November 23, 2017 (GMT +0100)
Le Bourget

Weather History for LFPB - April, 2013

Change the Weather History Date:

Monday, April 8, 2013

  Actual Average Record
Temperature  
Mean Temperature 44 °F -  
Max Temperature 50 °F 60 °F 69 °F (2011)
Min Temperature 37 °F 44 °F 28 °F (2003)
Degree Days  
Heating Degree Days 22    
Moisture  
Dew Point 32 °F    
Average Humidity 62    
Maximum Humidity 76    
Minimum Humidity 50    
Precipitation  
Precipitation 0.00 in 0.07 in - ()
Sea Level Pressure  
Sea Level Pressure 29.67 in    
Wind  
Wind Speed 4 mph ()    
Max Wind Speed 9 mph    
Max Gust Speed -    
Visibility 6.2 miles    
Events      
Averages and records for this station are not official NWS values.
T = Trace of Precipitation, MM = Missing Value Source: Averaged Metar Reports

Daily Weather History Graph

Daily Weather History Graph

Search for Another Location

Airport or City:

Trip Planner

Search our weather history database for the weather conditions in past years. The results will help you decide how hot, cold, wet, or windy it might be!

Date:

Astronomy

Apr. 08, 2013 Rise Set
Actual Time 7:13 AM CEST 8:31 PM CEST
Civil Twilight 6:40 AM CEST 9:04 PM CEST
Nautical Twilight 6:01 AM CEST 9:44 PM CEST
Astronomical Twilight 5:18 AM CEST 10:26 PM CEST
Moon 6:04 AM CEST (4/8) 6:44 PM CEST (4/8)
Length of Visible Light 14h 23m
Length of Day
13h 18m
Waning Crescent, 4% of the Moon is Illuminated
Apr 8
Waning Crescent
Apr 10
New
Apr 18
First Quarter
Apr 25
Full
May 2
Last Quarter

Hourly Weather History & Observations

Time (CEST) Temp. Windchill Dew Point Humidity Pressure Visibility Wind Dir Wind Speed Gust Speed Precip Events Conditions
12:00 AM 41.0 °F 37.1 °F 30.2 °F 65% 29.86 in 6.2 mi ENE 5.8 mph - N/A   Unknown
12:30 AM 41.0 °F 36.4 °F 30.2 °F 65% 29.83 in 6.2 mi East 6.9 mph - N/A   Unknown
1:00 AM 41.0 °F 37.1 °F 30.2 °F 65% 29.83 in 6.2 mi East 5.8 mph - N/A   Unknown
1:30 AM 41.0 °F 38.0 °F 30.2 °F 65% 29.83 in 6.2 mi East 4.6 mph - N/A   Unknown
2:00 AM 41.0 °F 39.0 °F 30.2 °F 65% 29.80 in 6.2 mi East 3.5 mph - N/A   Unknown
2:30 AM 41.0 °F 38.0 °F 30.2 °F 65% 29.80 in 6.2 mi ENE 4.6 mph - N/A   Unknown
3:00 AM 41.0 °F 37.1 °F 30.2 °F 65% 29.77 in 6.2 mi East 5.8 mph - N/A   Unknown
3:30 AM 41.0 °F 39.0 °F 32.0 °F 70% 29.77 in 6.2 mi East 3.5 mph - N/A   Unknown
4:00 AM 42.8 °F 39.3 °F 30.2 °F 61% 29.74 in 6.2 mi East 5.8 mph - N/A   Unknown
4:30 AM 41.0 °F 35.8 °F 30.2 °F 65% 29.74 in 6.2 mi East 8.1 mph - N/A   Unknown
5:00 AM 39.2 °F 34.2 °F 30.2 °F 70% 29.71 in 6.2 mi East 6.9 mph - N/A   Unknown
5:30 AM 41.0 °F 37.1 °F 30.2 °F 65% 29.71 in 6.2 mi East 5.8 mph - N/A   Unknown
6:00 AM 41.0 °F 38.0 °F 30.2 °F 65% 29.71 in 6.2 mi East 4.6 mph - N/A   Unknown
6:30 AM 39.2 °F 37.0 °F 30.2 °F 70% 29.68 in 6.2 mi Variable 3.5 mph - N/A   Unknown
7:00 AM 37.4 °F 32.8 °F 28.4 °F 70% 29.68 in 6.2 mi ENE 5.8 mph - N/A   Unknown
7:30 AM 37.4 °F 33.8 °F 30.2 °F 75% 29.68 in 6.2 mi ENE 4.6 mph - N/A   Unknown
8:00 AM 39.2 °F 35.9 °F 30.2 °F 70% 29.68 in 6.2 mi East 4.6 mph - N/A   Unknown
8:30 AM 39.2 °F 37.0 °F 32.0 °F 75% 29.68 in 6.2 mi NE 3.5 mph - N/A   Unknown
9:00 AM 41.0 °F - 32.0 °F 70% 29.68 in 6.2 mi Variable 2.3 mph - N/A   Unknown
9:30 AM 42.8 °F 40.1 °F 30.2 °F 61% 29.65 in 6.2 mi ESE 4.6 mph - N/A   Unknown
10:00 AM 42.8 °F 39.3 °F 30.2 °F 61% 29.65 in 6.2 mi SE 5.8 mph - N/A   Unknown
10:30 AM 44.6 °F 43.1 °F 30.2 °F 57% 29.65 in 6.2 mi SSE 3.5 mph - N/A   Unknown
11:00 AM 46.4 °F 45.2 °F 32.0 °F 57% 29.65 in 6.2 mi SSE 3.5 mph - N/A   Unknown
11:30 AM 48.2 °F - 32.0 °F 54% 29.65 in 6.2 mi South 5.8 mph - N/A   Unknown
12:00 PM 48.2 °F - 32.0 °F 54% 29.65 in 6.2 mi South 6.9 mph - N/A   Overcast
12:30 PM 48.2 °F - 32.0 °F 54% 29.65 in 6.2 mi Variable 3.5 mph - N/A   Mostly Cloudy
1:00 PM 50.0 °F - 32.0 °F 50% 29.62 in 6.2 mi Variable 4.6 mph - N/A   Mostly Cloudy
1:30 PM 50.0 °F - 32.0 °F 50% 29.62 in 6.2 mi SE 3.5 mph - N/A   Mostly Cloudy
2:00 PM 48.2 °F - 32.0 °F 54% 29.62 in 6.2 mi SSE 4.6 mph - N/A   Overcast
2:30 PM 48.2 °F - 33.8 °F 58% 29.62 in 6.2 mi South 9.2 mph - N/A   Overcast
3:00 PM 48.2 °F - 33.8 °F 58% 29.62 in 6.2 mi South 8.1 mph - N/A   Overcast
3:30 PM 50.0 °F - 33.8 °F 54% 29.62 in 6.2 mi SW 6.9 mph - N/A   Overcast
4:00 PM 50.0 °F - 33.8 °F 54% 29.62 in 6.2 mi SW 4.6 mph - N/A   Overcast
4:30 PM 50.0 °F - 33.8 °F 54% 29.59 in 6.2 mi West 3.5 mph - N/A   Overcast
5:00 PM 50.0 °F - 33.8 °F 54% 29.59 in 6.2 mi South 3.5 mph - N/A   Overcast
5:30 PM 50.0 °F - 33.8 °F 54% 29.59 in 6.2 mi Variable 2.3 mph - N/A   Overcast
6:00 PM 50.0 °F - 35.6 °F 58% 29.59 in 6.2 mi Variable 2.3 mph - N/A   Mostly Cloudy
6:30 PM 50.0 °F - 35.6 °F 58% 29.59 in 6.2 mi West 4.6 mph - N/A   Overcast
7:00 PM 50.0 °F - 35.6 °F 58% 29.59 in 6.2 mi NW 3.5 mph - N/A   Overcast
7:30 PM 48.2 °F - 35.6 °F 62% 29.59 in 6.2 mi Variable 2.3 mph - N/A   Overcast
8:00 PM 48.2 °F - 35.6 °F 62% 29.59 in 6.2 mi Calm Calm - N/A   Unknown
8:30 PM 48.2 °F - 35.6 °F 62% 29.59 in 6.2 mi Calm Calm - N/A   Unknown
9:00 PM 46.4 °F - 35.6 °F 66% 29.59 in 6.2 mi Calm Calm - N/A   Mostly Cloudy
9:30 PM 46.4 °F - 35.6 °F 66% 29.62 in 6.2 mi Calm Calm - N/A   Mostly Cloudy
10:00 PM 44.6 °F - 35.6 °F 71% 29.62 in 6.2 mi Calm Calm - N/A   Scattered Clouds
10:30 PM 44.6 °F - 33.8 °F 66% 29.62 in 6.2 mi Calm Calm - N/A   Unknown
11:00 PM 42.8 °F - 33.8 °F 70% 29.59 in 6.2 mi SSE 2.3 mph - N/A   Unknown
11:30 PM 41.0 °F 39.0 °F 33.8 °F 76% 29.59 in 6.2 mi SSE 3.5 mph - N/A   Unknown